Regional Weather Roundup
Issued by NWS

Home | Current Version | Previous Version | Graphics & Text | Print | Product List | Glossary On
Versions: 1 2 3 4 5 6 7 8 9 10 11 12 13 14 15 16 17 18 19 20 21 22 23 24 25 26 27 28 29 30 31 32 33 34 35 36 37 38 39 40 41 42 43 44 45 46 47 48 49 50
482
ASUS43 KLSX 071807
RWRMO

WEATHER SUMMARY FOR MISSOURI
NATIONAL WEATHER SERVICE SPRINGFIELD MO
1200 PM CST WED DEC 07 2016

NOTE: "FAIR" INDICATES FEW OR NO CLOUDS BELOW 12,000 FEET WITH NO
       SIGNIFICANT WEATHER AND/OR OBSTRUCTIONS TO VISIBILITY.
       CURRENT SKY AND/OR WEATHER CONDITIONS ARE NOT AVAILABLE FOR
       CHILLICOTHE AND FARMINGTON.

MOZ001>031-035>038-043-044-053-054-071900-
...NORTHERN AND WESTERN MISSOURI...

CITY           SKY/WX    TMP DP  RH WIND       PRES   REMARKS
KANSAS CTY INT LGT SNOW  25  20  81 NW8       30.31F VSB 1   WCI  16
6HR MIN TEMP:  24; 6HR MAX TEMP:  28; 6HR PCP:  0.02;

KANSAS C DTWN  LGT SNOW  27  23  85 NW8       30.32F VSB 1   WCI  19
6HR MIN TEMP:  27; 6HR MAX TEMP:  31; 6HR PCP: TRACE;

LEE`S SUMMIT   LGT SNOW  26  22  84 NW7       30.30F VSB 3/4 WCI  18
6HR MIN TEMP:  26; 6HR MAX TEMP:  30; 6HR PCP: TRACE;

ST JOSEPH      CLOUDY    25  13  60 NW14      30.34S WCI  13
6HR MIN TEMP:  24; 6HR MAX TEMP:  27;

CHILLICOTHE      N/A     30  14  51 NW12G17   30.31R WCI  20
6HR MIN TEMP:  25; 6HR MAX TEMP:  30; 6HR PCP:  0.02;

KIRKSVILLE     MOSUNNY   31  13  47 W8        30.24F WCI  23
6HR MIN TEMP:  24; 6HR MAX TEMP:  31;


$$
MOZ066>068-077>081-088>096-101>105-071900-
...SOUTHWEST MISSOURI...

CITY           SKY/WX    TMP DP  RH WIND       PRES   REMARKS
SPRINGFIELD    CLOUDY    37  15  40 NE7       30.21F
6HR MIN TEMP:  24; 6HR MAX TEMP:  37;

JOPLIN         CLOUDY    36  18  48 NE7       30.24F
6HR MIN TEMP:  31; 6HR MAX TEMP:  36;

BRANSON        CLOUDY    34  18  51 NE5       30.23S WCI  30

$$
MOZ032>034-039>042-045>050-055>058-069>072-071900-
...CENTRAL MISSOURI...

CITY           SKY/WX    TMP DP  RH WIND       PRES   REMARKS
COLUMBIA       CLOUDY    35  14  42 W7        30.25S WCI  29
6HR MIN TEMP:  30; 6HR MAX TEMP:  35;

JEFFERSON CITY CLOUDY    36  17  46 NW7       30.27S
6HR MIN TEMP:  26; 6HR MAX TEMP:  37;

ROLLA          CLOUDY    35  18  49 N9        30.21S WCI  28
6HR MIN TEMP:  24; 6HR MAX TEMP:  36;

SEDALIA        CLOUDY    34  16  47 NW8       30.28F WCI  27
6HR MIN TEMP:  31; 6HR MAX TEMP:  34;

WHITEMAN AFB   FLURRIES  32  15  49 NW9       30.28S WCI  24
WARRENSBURG    CLOUDY    30  18  59 NW7       30.30S WCI  23
OSAGE BEACH    CLOUDY    36  12  37 VRB3      30.25F

$$
MOZ051-052-059>065-071900-
...EAST CENTRAL MISSOURI...

CITY           SKY/WX    TMP DP  RH WIND       PRES   REMARKS
ST LOUIS INTL  CLOUDY    37  15  40 W5        30.23F
6HR MIN TEMP:  31; 6HR MAX TEMP:  37;

SPIRIT OF STL  CLOUDY    36  18  48 SW3       30.22F
6HR MIN TEMP:  28; 6HR MAX TEMP:  37;

ST CHARLES     CLOUDY    36  18  48 NW8       30.23F WCI  30
6HR MIN TEMP:  27; 6HR MAX TEMP:  36;


$$
MOZ072>076-082>087-097>100-106>115-071900-
...SOUTH CENTRAL AND SOUTHEAST MISSOURI...

CITY           SKY/WX    TMP DP  RH WIND       PRES   REMARKS
CAPE GIRARDEAU CLOUDY    41  17  38 VRB3      30.21F
6HR MIN TEMP:  30; 6HR MAX TEMP:  42;

FARMINGTON     CLOUDY    37  17  44 VRB5      30.21F
6HR MIN TEMP:  24; 6HR MAX TEMP:  37;

POPLAR BLUFF   CLOUDY    41  20  43 NE6       30.22F
6HR MIN TEMP:  32; 6HR MAX TEMP:  41;

WEST PLAINS    CLOUDY    37  14  38 NE5       30.21S
6HR MIN TEMP:  25; 6HR MAX TEMP:  37;


$$



USA.gov is the U.S. government's official web portal to all federal, state and local government web resources and services.